#timestamp,LO_Frequency,Hit,StdDev 
1610344815.5,286046997.5,Y
1610344835.3,286046999.6,P
1610344855.2,286046996.9,P
1610344875.0,286046999.3,N
1610344875.9,286046999.3,N
1610344895.8,286046998.2,N
1610344915.6,286046998.1,N
1610344935.4,286047001.0,N
1610344955.3,286047000.1,N
1610344975.1,286047002.6,N
1610344995.8,286047002.9,N
1610345015.7,286047004.4,N
1610345035.5,286047004.2,N
1610345055.4,286047003.6,N
1610345075.2,286047003.1,N
1610345095.0,286047003.5,N
1610345096.0,286047003.5,N
1610345115.8,286047004.1,N
1610345135.6,286047003.8,N
1610345155.5,286047002.0,N
1610345175.3,286047002.5,N
1610345195.1,286047002.4,N
1610345215.9,286047002.4,N
1610345235.7,286047002.2,N
1610345255.6,286047001.8,N
1610345275.4,286047003.9,N
1610345295.2,286047001.3,N
1610345315.1,286047003.2,N
1610345316.0,286047003.2,N
1610345335.8,286047003.5,N
1610345355.6,286047003.7,N
1610345375.5,286047003.6,N
1610345395.3,286047004.3,N
1610345415.2,286047004.4,N
1610345435.9,286047001.9,N
1610345455.7,286047001.4,N
1610345475.6,286047002.8,N
1610345495.4,286047001.0,N
1610345515.3,286047000.1,N
1610345535.1,286047000.3,N
1610345536.0,286047000.3,N
1610345555.8,286047002.7,N
1610345575.7,286047000.7,N
1610345595.5,286047000.3,N
1610345615.3,286046999.9,N
1610345635.2,286047000.6,N
1610345655.0,286047000.9,N
1610345655.9,286047000.9,N
1610345675.8,286047000.0,N
1610345695.6,286047000.9,N
1610345715.4,286047002.7,N
1610345735.3,286046998.1,N
1610345755.1,286047000.7,N
1610345775.9,286047001.1,N
1610345795.7,286047000.9,N
1610345815.5,286047001.2,N
1610345835.4,286046998.9,N
1610345855.2,286046996.5,N
1610345875.1,286046998.3,N
1610345876.0,286046998.3,N
1610345895.8,286046998.4,N
1610345915.6,286046998.5,N
1610345935.5,286047000.9,N
1610345955.3,286047000.4,N
1610345975.1,286047000.9,N
1610345995.9,286047000.7,N
1610346015.7,286046999.3,N
1610346035.6,286046999.9,N
1610346055.4,286046998.8,N
1610346075.2,286046998.4,N
1610346095.1,286046998.3,N
1610346096.0,286046998.3,N
1610346115.8,286046998.7,N
1610346135.7,286046998.5,N
1610346155.5,286046999.2,N
1610346175.3,286046999.5,N
1610346195.2,286046997.0,N
1610346215.0,286046998.8,N
1610346215.9,286046998.8,N
1610346235.7,286046999.4,N
1610346255.6,286047000.7,N
1610346275.4,286046999.7,N
1610346295.3,286047000.1,N
1610346315.1,286047000.1,N
1610346316.0,286047000.1,N
1610346335.8,286046998.2,N
1610346355.7,286046999.4,N
1610346375.5,286046999.4,N
1610346395.4,286047000.8,N
1610346415.2,286046996.8,Y
1610346435.0,286046999.4,P
1610346435.9,286046999.4,P
1610346455.8,286047001.1,P
1610346475.6,286046998.1,N
1610346495.5,286046997.2,N
1610346515.3,286046997.1,N
1610346535.1,286046999.0,N
1610346555.9,286046999.3,N
1610346575.7,286046997.0,N
1610346595.6,286047001.2,N
1610346615.4,286046999.1,N
1610346635.2,286046998.8,N
1610346655.1,286046998.8,N
1610346656.0,286046998.8,N
1610346675.8,286046998.4,N
1610346695.7,286046997.7,N
1610346715.5,286046997.5,N
1610346735.3,286046995.3,Y
1610346755.2,286046994.9,P
1610346775.0,286046999.5,N
1610346775.9,286046999.5,N
1610346795.8,286046998.8,N
1610346815.6,286046999.0,N
1610346835.4,286046997.1,N
1610346855.3,286046998.9,N
1610346875.1,286046999.0,N
1610346895.8,286046999.5,N
1610346915.7,286046998.9,N
1610346935.5,286046998.7,N
1610346955.4,286046996.7,N
1610346975.2,286046996.8,N
1610346995.0,286046997.1,N
1610346995.9,286046997.1,N
1610347015.8,286046999.3,N
1610347035.6,286047001.2,N
1610347055.4,286046998.4,N
1610347075.3,286047000.1,N
1610347095.1,286047001.9,N
1610347115.9,286047002.1,N
1610347135.7,286047001.9,N
1610347155.5,286047004.0,N
1610347175.4,286047003.9,N
1610347195.2,286047001.3,N
1610347215.0,286047001.1,N
1610347215.9,286047001.1,N
1610347235.8,286047000.5,N
1610347255.6,286047001.5,N
1610347275.5,286047001.4,N
1610347295.3,286046999.8,N
1610347315.1,286047000.3,N
1610347335.9,286047000.7,N
1610347355.7,286047000.5,N
1610347375.6,286046998.6,N
1610347395.4,286047001.0,N
1610347415.2,286047000.6,N
1610347435.1,286047000.8,N
1610347436.0,286047000.8,N
1610347455.8,286047000.9,N
1610347475.7,286047000.4,N
1610347495.5,286047002.0,N
1610347515.3,286047002.3,N
1610347535.2,286047000.8,N
1610347555.0,286046998.8,N
1610347555.9,286046998.8,N
1610347575.8,286046999.8,N
1610347595.6,286047002.9,N
1610347615.4,286047002.0,N
1610347635.3,286047003.9,Y
1610347655.1,286047003.7,P
1610347675.9,286047003.1,N
1610347695.7,286047003.4,P
1610347715.5,286046999.7,N
1610347735.4,286047002.3,N
1610347755.2,286047002.6,N
1610347775.0,286047002.0,N
1610347775.9,286047002.0,N
1610347795.8,286047004.2,Y
1610347815.6,286046999.9,P
1610347835.5,286047000.3,N
1610347855.3,286047000.0,N
1610347875.1,286047000.5,N
1610347895.9,286047000.5,N
1610347915.7,286046999.9,N
1610347935.5,286047001.0,N
1610347955.4,286047000.5,N
1610347975.2,286047000.6,N
1610347995.1,286047002.6,Y
1610347996.0,286047002.6,P
1610348015.8,286047002.6,N
1610348035.6,286047000.3,N
1610348055.5,286047000.7,N
1610348075.3,286047001.2,N
1610348095.2,286047000.3,N
1610348115.9,286047002.7,N
1610348135.7,286047000.4,N
1610348155.6,286046999.8,N
1610348175.4,286047002.5,N
1610348195.3,286047003.0,N
1610348215.1,286047004.1,Y
1610348216.0,286047004.1,P
1610348235.8,286047000.9,N
1610348255.7,286047000.5,N
1610348275.5,286047000.0,N
1610348295.3,286047000.4,N
1610348315.2,286047001.0,N
1610348335.0,286047000.2,N
1610348335.9,286047000.2,N
1610348355.8,286046999.3,N
1610348375.6,286046999.1,N
1610348395.4,286047001.0,N
